EST,Max TemperatureF,Mean TemperatureF,Min TemperatureF,Max Dew PointF,MeanDew PointF,Min DewpointF,Max Humidity, Mean Humidity, Min Humidity, Max Sea Level PressureIn, Mean Sea Level PressureIn, Min Sea Level PressureIn, Max VisibilityMiles, Mean VisibilityMiles, Min VisibilityMiles, Max Wind SpeedMPH, Mean Wind SpeedMPH, Max Gust SpeedMPH,PrecipitationIn, CloudCover, Events, WindDirDegrees
2012-12-1,69,54,39,50,45,38,98,80,49,30.41,30.36,30.33,10,10,9,9,2,,0.00,3,,120
2012-12-2,72,58,44,56,51,44,100,84,54,30.40,30.33,30.27,10,8,2,9,1,,0.00,4,,158
2012-12-3,75,60,46,66,51,46,100,95,43,30.35,30.31,30.25,10,3,0,9,0,,0.00,2,Fog,226
2012-12-4,73,60,46,62,51,46,100,93,48,30.36,30.29,30.24,10,5,0,10,1,,0.00,4,Fog,190
2012-12-5,76,60,45,57,49,46,100,94,45,30.23,30.19,30.11,10,3,0,12,1,17,0.00,2,Fog,261
2012-12-6,60,54,47,52,44,36,88,70,51,30.25,30.19,30.16,10,10,10,13,6,18,0.00,7,,45
2012-12-7,57,52,47,49,43,36,100,75,60,30.17,30.09,30.02,10,9,6,8,5,,0.00,7,Rain,355
2012-12-8,71,58,46,56,50,46,100,94,52,30.10,30.05,30.01,10,4,0,10,4,,0.00,6,Fog,288
2012-12-9,74,61,48,65,56,48,100,96,63,30.15,30.09,30.00,10,6,0,10,1,,0.00,5,Fog,271
2012-12-10,74,64,53,62,56,54,100,96,55,29.99,29.91,29.76,10,4,0,16,1,23,0.00,4,Fog-Rain,196
2012-12-11,64,58,53,59,51,42,100,78,51,30.10,29.92,29.77,10,8,1,9,4,,0.00,7,Rain,274
2012-12-12,54,48,41,45,40,34,96,78,54,30.32,30.20,30.11,10,8,3,12,7,23,0.38,8,Rain,24
2012-12-13,52,46,39,41,38,34,100,87,61,30.37,30.30,30.19,10,8,2,17,8,28,0.25,6,Rain,10
2012-12-14,59,46,32,36,33,31,95,70,36,30.40,30.31,30.24,10,10,10,7,3,,0.00,1,,12
2012-12-15,59,46,33,48,41,32,96,77,47,30.26,30.18,30.09,10,10,10,6,1,,0.00,6,,121
2012-12-16,66,58,50,59,55,46,100,94,73,30.12,30.01,29.88,10,6,0,7,2,,0.01,8,Fog-Rain,105
2012-12-17,60,58,55,61,58,55,100,100,94,29.92,29.86,29.75,10,7,0,13,6,,0.59,8,Fog-Rain,256
2012-12-18,64,52,38,58,48,33,100,79,40,29.99,29.82,29.74,10,10,10,21,8,26,0.00,3,,246
2012-12-19,70,52,33,43,37,31,92,67,31,30.12,30.06,30.00,10,10,10,14,2,,0.00,2,,245
2012-12-20,71,54,37,63,49,32,100,79,53,30.12,29.85,29.64,10,10,4,29,8,45,0.29,5,Rain,173
2012-12-21,49,44,39,29,23,18,56,45,33,29.98,29.85,29.77,10,10,10,28,18,37,0.01,0,,267
2012-12-22,57,44,30,24,17,10,66,41,15,30.17,30.11,29.98,10,10,10,14,8,18,0.00,0,,257
2012-12-23,58,42,26,32,24,19,86,52,23,30.21,30.14,30.09,10,10,10,10,3,,0.00,1,,238
2012-12-24,52,44,37,50,44,32,100,88,47,30.09,29.98,29.92,10,8,2,12,3,22,0.44,7,Rain,181
2012-12-25,54,52,50,52,50,48,100,97,82,30.10,30.02,29.94,10,9,3,9,4,,0.17,8,Rain,73
2012-12-26,64,52,39,65,51,30,100,87,43,29.93,29.71,29.51,10,8,2,26,11,39,0.24,7,Rain-Thunderstorm,145
2012-12-27,54,44,33,34,31,29,96,67,38,30.08,29.97,29.81,10,10,10,17,10,24,0.00,3,,284
2012-12-28,50,40,31,38,32,28,95,70,51,30.17,30.09,29.94,10,10,6,9,4,,0.00,5,,72
2012-12-29,55,48,39,46,41,28,100,86,57,30.07,29.84,29.75,10,9,3,18,7,25,0.69,7,Rain,299
2012-12-30,50,38,26,28,23,18,86,62,28,30.44,30.33,30.09,10,10,10,10,5,,0.00,0,,292
2012-12-31,57,40,23,42,31,21,91,64,36,30.45,30.32,30.18,10,10,10,12,3,,0.00,4,,212